Tracking 19706 objects as of 15-Jun-2019
HD Live streaming from Space Station
objects crossing your sky now

SCOUT A-1 DEB

Track SCOUT A-1 DEB now!
10-day predictions


NORAD ID: 18496
Int'l Code: 1973-081D
Perigee: 871.0 km
Apogee: 1,072.7 km
Inclination: 90.0 °
Period: 104.4 minutes
Semi major axis: 7342 km
RCS: 0.052 m2 (small)
Launch date: October 30, 1973
Source: United States (US)
Launch site: AIR FORCE WESTERN TEST RANGE (AFWTR)

Note: This is SATELLITE DEBRIS
aabbcc
Your satellite tracking list
Your tracking list is empty




NASA's NSSDC Master Catalog

Two Line Element Set (TLE):
1 18496U 73081D   19165.63867354 +.00000163 +00000-0 +13718-3 0  9994
2 18496 090.0450 117.7015 0137359 070.5755 347.8993 13.79759033574261
Source of the keplerian elements: AFSPC